MINOTAUR-C R/B

基本信息
目录编号:
42994
目录名称:
MINOTAUR-C R/B
国际标识:
2017-068H
轨道中心:
EARTH
物体状态:
已陨落(2025-01-04)
发射日期:
2017-10-31 UTC
国别:
美国 (US)
轨道信息
数据来源: 国际轨道数据
星历时间: 2025-01-04T14:03:26+0800
半长轴: 6519.53km
偏心率: 0.0010042
轨道倾角: 97.426°
近地点辐角: 319.726°
升交点赤经: 138.441°
平近点角: 137.353°
近地点: 134.848km
远地点: 147.942km
周期: 87.314分钟
每日圈数: 16.492192
详细信息
发射场:
AFWTR
轨道高度:
LEO
数据来源:
AOE Integration Group
参考系:
TEME
时间系统:
UTC
历元类型:
SGP4
2D轨道图
3D轨道图
轨道高度分析图
轨道倾角分析图
轨道综合分析图
查看轨道综合分析图